Location: Colle Santa Colomba
(42.0333°N, 12.5667°E)
Time: 03:36:34
(UTC+00:00)

Cosmos 44 - Pass Details

Date: 25 October 2021
Orbit: 579 x 782 km, 65.1° (Epoch: 28 November)

Event Time Altitude Azimuth Distance (km) Brightness Sun altitude
Rises 17:27:50 0° 210° (SSW) 3,247 7.2 -14.5°
Reaches altitude 10° 17:30:14 10° 209° (SSW) 2,328 6.4 -15.0°
Maximum altitude 17:35:38 86° 124° (ESE) 787 3.5 -16.0°
Enters shadow 17:40:52 11° 34° (NNE) 2,264 5.6 -16.9°
